Powrót do katalogu

QIANFAN-236

AktywnyŁącznośćPO
NORAD 69865·PAYLOAD·🇨🇳 China

Wystrzelony Jul 5, 2026 z Wenchang Space Launch Site

Loading…

Następne Przeloty (najbliższe 24 godziny)

TLE

ŚwieżeSource: Space-Track

Epoka: Sep 14, 2026, 14:24 UTC

1 69865U 26155T   26257.60008320  .00000011  00000-0 -20204-5 0  9990
2 69865  89.0084  54.3088 0035121  26.9991 333.2981 13.57842794  9931

Śledź QIANFAN-236 w czasie rzeczywistym z AllMySat

Download on the App Store